GFSSGP_850_thetae_000.txt.gz
Theta_e
318 319 320 321 326 324 322 323 321 321 321 320 319 321 320 320 319 320 317 317 319 319 324 328 330 331 334 334 336 335 334 333 332 332 330 327 323 319 317 314 312 312 313 313 327 330 335 339 338
319 320 322 321 323 322 322 320 320 320 319 317 318 318 319 320 319 319 319 318 318 319 322 325 325 329 332 334 333 334 334 332 331 331 330 327 322 319 315 313 312 310 310 311 325 331 335 339 334
318 321 323 322 321 322 321 320 319 318 316 317 318 316 317 318 316 316 315 314 314 316 319 319 320 320 322 330 334 334 334 333 331 330 329 328 320 316 315 317 328 319 310 311 323 332 334 336 332
318 319 317 321 320 320 320 319 317 318 317 315 315 317 315 316 315 315 314 314 313 313 317 315 318 320 322 329 332 334 334 333 331 330 329 323 320 319 330 326 327 324 320 313 328 332 334 335 333
317 317 321 321 320 319 318 317 315 317 317 317 314 317 315 315 314 313 313 312 312 313 313 316 318 318 321 324 328 331 332 333 332 331 329 325 333 329 330 329 327 327 327 316 330 332 335 335 334
318 317 321 321 319 318 318 316 315 316 316 315 313 315 315 315 314 313 313 312 311 312 313 314 316 317 317 319 323 327 332 333 332 331 329 326 326 328 328 327 326 328 331 320 330 332 335 336 335
320 320 320 319 319 319 318 313 316 316 316 316 313 316 316 314 314 313 312 312 312 311 312 314 315 316 316 314 316 324 331 333 332 330 328 328 327 327 328 327 326 328 331 324 328 332 336 336 336
317 319 320 319 319 319 317 314 313 314 317 313 311 317 317 314 313 313 313 312 312 312 311 311 312 313 313 313 313 320 331 332 332 330 329 329 328 327 326 327 325 327 332 326 325 332 336 335 335
315 320 320 319 318 319 315 316 314 313 313 312 312 313 312 313 313 313 312 314 314 312 311 312 312 313 314 315 315 319 331 332 331 330 329 329 327 326 325 326 324 326 333 329 329 333 335 333 328
318 320 319 317 317 318 317 314 313 314 316 315 314 313 311 311 310 310 311 311 312 314 313 311 312 313 315 315 320 321 329 331 330 329 329 328 327 326 323 322 323 325 332 331 332 335 332 333 323
316 320 315 315 314 314 315 315 311 314 317 313 311 312 312 312 310 308 307 307 307 309 311 314 310 312 315 317 320 324 326 328 328 329 329 328 327 325 322 322 323 326 330 333 334 331 332 327 323
317 315 314 314 313 313 314 312 314 312 314 311 311 312 312 308 305 304 305 305 305 306 307 309 310 310 311 315 323 323 326 325 328 329 328 328 325 324 322 322 323 326 329 331 328 325 325 323 322
315 315 312 311 311 311 311 313 311 312 311 312 312 311 308 304 303 303 303 304 304 304 306 307 308 309 311 317 316 321 324 327 327 327 327 327 323 322 322 321 322 324 328 328 327 325 324 322 323
312 312 312 310 310 309 312 312 310 312 312 310 311 308 304 303 303 302 301 302 302 303 304 305 307 307 314 319 320 319 322 325 328 328 327 326 322 322 323 322 323 324 326 328 325 321 320 320 321
310 313 315 313 312 311 310 314 313 312 310 309 309 305 303 302 302 301 301 301 302 302 302 304 305 306 309 315 320 321 325 321 329 328 328 326 323 323 322 322 323 324 325 325 323 319 318 320 319
313 314 314 314 312 309 313 313 314 311 307 309 307 304 302 301 301 301 300 300 300 301 301 300 303 306 310 314 318 321 320 323 322 327 328 327 325 323 322 320 321 323 324 325 322 319 318 321 320
316 315 313 312 313 312 313 315 313 308 307 306 304 302 301 301 300 300 299 298 298 298 299 299 298 301 306 313 314 317 317 319 320 322 326 326 326 324 322 320 319 321 323 323 319 319 317 318 321
317 316 313 313 313 313 314 314 312 306 305 303 302 300 300 300 300 299 297 297 297 297 297 298 299 299 300 305 311 314 317 317 320 320 322 325 324 325 323 322 320 321 322 322 318 318 318 316 319
313 314 314 312 313 312 312 311 308 306 301 301 300 298 298 299 299 299 296 296 296 297 296 296 298 301 301 301 305 308 314 318 318 318 320 321 324 324 324 322 322 321 321 322 319 317 317 319 318
313 312 311 313 312 309 310 308 306 304 299 298 299 297 297 297 299 298 296 294 295 297 296 296 298 299 301 304 302 305 308 311 318 318 319 318 322 324 324 324 323 319 322 322 320 318 318 319 318
310 311 312 311 308 308 307 306 306 303 300 298 297 297 296 296 296 296 294 294 295 296 295 295 296 298 301 298 301 302 304 308 312 319 318 318 318 323 324 323 322 319 321 321 320 316 318 318 318
311 308 308 306 306 306 306 305 307 306 301 298 297 296 296 295 294 294 294 293 294 295 294 294 295 296 299 300 297 296 301 305 307 310 319 317 316 315 322 323 321 320 321 321 319 316 316 317 317
311 305 305 305 305 306 306 307 309 308 301 297 297 296 295 294 293 293 293 293 293 294 292 293 294 295 295 299 299 297 295 301 306 307 311 318 318 318 320 322 320 320 321 320 319 316 316 315 315
302 304 304 305 306 307 304 300 303 301 297 297 296 295 294 293 293 293 292 292 292 293 292 292 293 293 294 295 299 297 296 295 304 306 310 315 318 318 318 321 319 318 319 319 319 316 315 313 314
302 304 304 306 308 307 302 299 301 297 296 296 296 294 293 293 293 292 292 291 292 292 291 291 292 292 293 293 296 298 297 294 296 304 307 310 316 318 319 319 319 317 318 319 320 318 314 313 315
303 305 301 300 303 303 300 299 301 297 296 295 294 293 292 292 291 291 291 291 291 291 291 291 291 291 292 292 293 296 296 295 294 301 304 307 309 317 317 319 320 318 317 318 317 316 315 313 316
304 303 300 298 298 299 299 300 300 297 296 295 294 292 292 291 291 291 291 291 291 291 291 290 290 291 291 292 292 294 296 295 293 298 300 303 306 307 318 318 317 319 318 317 318 316 315 315 312
297 298 299 299 297 297 298 297 297 296 295 294 293 292 291 291 291 291 291 290 290 290 290 289 289 290 290 291 291 293 295 295 294 294 299 300 304 305 308 318 315 319 317 317 318 317 316 314 312
296 296 295 294 294 296 295 297 296 295 295 293 292 291 291 291 291 290 290 289 288 287 287 287 288 289 290 291 291 292 293 295 293 293 294 296 300 304 307 315 317 317 317 317 318 318 318 315 313
295 296 294 293 293 294 294 294 296 295 294 292 291 291 291 290 290 289 288 287 285 282 280 279 279 281 283 286 289 292 292 294 295 294 294 293 298 302 307 308 316 317 318 317 317 318 317 317 317

GFSSGP_850_thetae_003.txt.gz
Theta_e
319 320 324 324 330 327 324 324 322 322 322 321 320 321 321 320 321 322 320 319 318 318 318 320 324 327 327 329 332 333 337 337 335 332 331 330 329 326 322 321 319 317 314 314 313 325 332 335 336
319 321 324 325 327 325 324 322 322 321 320 319 319 320 321 321 319 319 319 321 314 314 317 319 321 325 326 332 333 334 335 334 334 333 331 330 329 324 321 319 317 314 313 312 312 322 332 335 337
319 321 326 325 323 324 324 322 321 320 319 319 319 319 318 319 318 317 318 315 314 313 314 318 318 319 320 321 329 333 333 334 334 332 331 330 327 325 318 316 315 315 313 310 309 318 333 334 338
320 322 321 324 322 322 322 321 320 320 319 318 318 319 319 317 317 317 314 313 312 313 313 316 315 315 316 317 320 327 334 334 334 333 331 330 328 324 317 316 325 329 327 314 310 316 332 333 338
319 321 324 323 321 321 320 319 318 319 319 319 318 319 319 318 315 315 315 312 313 316 313 313 315 316 316 318 319 325 331 333 334 334 332 330 328 323 321 326 331 329 330 326 314 316 329 333 337
321 320 323 323 321 320 320 318 318 319 319 318 317 318 318 316 315 313 313 315 317 319 317 312 313 316 319 319 322 323 327 330 331 332 333 331 330 327 332 330 330 328 326 328 324 322 331 332 336
321 322 323 321 321 321 320 317 319 318 319 318 316 317 318 315 313 313 315 316 316 317 315 312 313 316 318 319 318 321 326 329 328 333 332 331 329 326 327 327 328 326 325 329 329 324 333 333 335
320 321 321 322 321 321 318 317 317 317 318 314 314 317 315 313 312 312 313 314 314 317 318 315 317 319 313 317 317 316 315 317 323 332 333 331 328 327 327 327 327 326 325 329 331 322 332 334 337
318 323 321 320 320 320 318 318 318 316 315 315 314 314 313 313 310 310 309 309 309 310 311 315 319 318 321 321 320 322 317 316 319 331 333 331 329 328 328 327 326 325 325 328 331 325 332 334 336
321 322 320 319 319 319 318 317 316 316 317 314 314 314 312 308 307 308 307 307 307 307 308 308 310 317 323 326 324 326 330 327 331 330 333 331 330 329 329 330 327 325 325 328 331 328 331 333 335
319 320 318 317 317 317 316 316 314 316 316 313 313 313 308 306 305 305 305 304 305 305 306 307 308 308 314 322 325 329 325 332 330 328 331 331 329 329 329 328 328 323 324 329 331 332 331 332 333
318 317 317 317 315 315 316 314 315 315 313 310 311 308 305 305 304 303 303 303 303 304 304 304 306 308 309 315 320 326 330 330 329 329 328 329 329 329 328 328 325 322 323 325 330 330 327 332 328
318 317 315 314 313 314 313 314 314 314 311 310 308 305 304 304 303 302 302 301 302 302 302 302 302 306 313 312 316 319 324 326 330 328 329 329 329 328 328 327 326 322 323 325 329 326 325 323 325
317 315 315 313 314 313 314 314 313 314 309 309 304 304 303 302 302 301 300 300 300 300 300 300 301 301 304 312 316 316 319 322 324 327 327 328 328 328 328 327 326 322 323 324 328 328 326 324 319
314 316 316 314 313 313 313 315 315 312 307 308 304 304 303 301 301 300 299 299 299 299 299 298 300 301 299 299 305 316 315 318 321 324 323 326 328 328 327 326 326 323 325 325 327 328 326 325 323
316 316 317 315 314 313 313 314 315 309 308 307 303 302 302 301 300 299 298 298 298 298 299 298 298 299 300 297 299 304 313 314 319 321 323 322 325 328 326 325 326 325 325 326 325 325 325 324 321
318 318 317 315 313 313 314 314 315 307 306 303 302 301 300 300 300 299 298 297 296 297 299 297 297 299 300 302 298 299 304 310 315 317 319 320 322 325 326 325 326 324 324 325 324 322 321 322 321
315 314 315 316 314 314 314 314 311 305 303 301 300 299 299 299 299 299 297 295 295 296 298 297 296 296 297 300 302 298 299 303 308 314 318 319 320 322 324 325 325 324 324 324 323 323 320 320 320
314 315 315 314 314 312 311 310 309 302 302 301 299 298 297 297 296 295 295 295 295 295 296 296 295 295 295 298 301 302 298 299 301 306 309 320 318 319 324 324 324 324 323 323 323 322 320 321 320
314 313 312 313 313 310 309 309 307 301 299 300 298 298 297 296 295 294 294 294 294 294 294 295 295 294 295 296 298 301 301 297 297 300 306 307 319 318 318 322 324 323 322 323 323 321 320 321 321
313 311 312 311 310 310 309 309 307 301 299 298 298 298 297 295 294 294 294 293 293 293 293 293 294 293 293 294 295 297 300 300 297 297 301 305 307 318 317 318 322 322 322 321 322 321 319 320 321
311 308 308 309 309 309 308 307 309 303 302 299 298 297 296 294 294 294 293 292 292 292 292 292 293 293 292 293 294 295 296 300 299 298 295 300 305 306 318 319 320 322 322 320 322 320 319 319 318
310 305 306 308 308 308 308 308 310 307 307 299 298 296 295 294 294 293 292 292 292 292 292 292 292 292 292 293 293 293 294 295 299 298 297 295 302 304 305 317 320 317 320 319 322 320 319 318 317
304 307 307 307 307 308 309 306 308 307 302 298 297 295 294 294 293 292 292 292 292 292 292 292 292 291 292 292 292 293 293 294 295 298 297 296 298 303 305 316 318 319 319 318 320 320 319 318 317
306 306 307 312 313 314 305 303 304 300 298 297 296 294 293 293 292 292 291 292 291 291 291 291 291 290 290 290 291 292 292 293 294 297 297 296 293 301 303 304 316 316 316 317 319 318 320 318 316
305 304 305 306 309 308 303 302 304 300 297 297 295 294 293 292 292 291 291 291 291 290 289 288 287 288 288 289 290 291 291 293 293 295 297 296 295 295 301 304 304 317 318 316 318 319 319 317 316
306 304 303 302 303 301 303 303 300 299 298 297 295 293 292 292 292 291 291 290 289 289 288 286 283 281 281 283 287 289 291 292 292 294 296 296 295 293 297 301 303 304 316 316 317 318 318 315 315
300 301 300 300 301 304 304 303 302 298 297 296 294 293 292 292 291 291 290 289 289 286 284 282 280 279 279 279 280 282 287 290 291 293 295 296 296 294 295 300 302 304 314 317 316 316 317 315 315
298 298 297 297 299 299 301 303 298 297 296 294 294 292 292 291 291 290 289 289 286 284 282 280 278 277 277 277 278 279 281 287 290 291 294 295 296 295 294 295 298 302 303 316 316 316 316 316 315
296 297 298 297 299 296 297 297 299 297 296 294 293 292 291 291 290 289 289 287 285 283 281 279 278 277 276 276 276 277 278 280 284 288 291 295 295 295 294 293 294 301 304 309 314 315 315 316 314

GFSSGP_850_thetae_006.txt.gz
Theta_e
320 320 324 325 330 328 324 323 322 321 321 320 320 320 320 320 320 320 323 323 318 314 317 313 318 324 327 328 330 334 335 336 337 337 335 332 331 329 328 323 324 322 318 316 315 315 318 328 332
320 321 325 327 327 327 322 322 321 319 319 319 320 320 319 319 318 318 318 316 313 318 318 323 316 319 326 328 329 333 334 334 337 337 334 332 331 330 327 325 321 319 317 314 313 314 318 326 332
319 322 325 327 323 322 323 320 319 320 319 319 319 319 319 318 317 317 316 315 313 321 323 319 317 318 317 321 325 328 332 333 334 333 333 332 331 329 327 324 319 317 315 313 311 312 317 328 331
321 323 322 323 322 321 321 318 319 319 319 319 318 318 318 316 315 315 314 314 317 319 326 323 317 319 322 321 318 322 334 334 336 334 333 333 331 330 328 324 317 320 319 325 316 310 314 334 333
321 322 324 323 321 320 320 319 319 319 319 318 317 318 315 314 314 314 314 315 316 318 320 325 315 314 317 322 322 321 322 330 332 332 333 333 332 331 329 326 319 328 330 332 328 318 312 331 333
320 320 323 324 321 320 319 318 318 318 318 317 317 316 314 313 314 313 314 314 316 318 318 317 315 312 313 318 321 321 322 325 328 331 331 330 331 331 330 328 329 328 329 328 329 328 313 327 334
322 323 324 321 320 321 318 318 317 317 316 314 315 316 314 312 311 311 312 312 312 313 316 318 319 318 316 315 318 320 319 319 322 328 330 329 330 331 331 329 327 327 328 327 326 327 323 325 333
320 320 322 321 319 321 317 318 317 317 316 314 315 313 311 308 309 309 308 308 307 307 308 309 312 316 319 320 325 321 320 319 319 322 323 327 330 332 331 328 327 326 327 326 325 328 327 326 333
319 323 322 320 320 319 318 317 316 316 315 314 314 312 307 307 307 307 306 306 306 305 304 305 306 308 310 316 319 327 326 326 326 320 325 323 329 333 331 329 327 327 326 326 325 326 330 325 332
320 323 320 318 317 317 317 316 315 315 314 313 312 308 306 305 304 304 303 303 303 303 303 301 302 305 306 308 311 317 324 329 326 327 329 333 332 333 332 329 328 328 327 326 325 325 331 327 330
319 320 318 318 317 315 316 315 315 315 312 311 308 306 305 304 303 302 301 301 301 300 301 302 301 301 300 301 306 312 317 320 326 325 326 327 330 330 331 330 329 328 327 326 325 325 331 328 328
317 318 318 317 315 314 315 314 313 312 311 309 306 305 304 303 302 300 300 300 300 300 299 300 301 301 300 299 299 302 305 312 320 323 326 327 328 329 330 329 328 328 327 326 324 325 330 329 329
318 316 315 315 314 314 314 314 313 311 309 306 305 304 303 302 300 299 299 299 299 298 299 299 298 299 299 300 299 299 299 303 309 317 322 325 327 327 327 329 328 328 327 325 323 325 330 331 330
317 316 315 314 314 314 313 313 314 309 307 305 304 303 302 301 300 299 298 297 296 296 298 298 298 297 296 296 296 297 297 298 302 309 315 321 323 326 327 327 328 327 327 324 323 324 326 330 328
314 315 313 313 314 314 313 313 312 309 307 305 304 303 302 301 300 299 298 296 295 296 297 297 297 296 296 295 295 295 297 296 297 302 311 315 321 323 325 326 327 328 327 324 323 325 325 328 325
314 315 316 314 314 313 313 312 309 308 308 304 302 301 300 300 300 299 296 296 295 295 295 295 296 295 295 294 294 295 296 296 295 297 303 313 317 320 322 324 327 328 327 326 323 325 325 325 322
316 317 314 316 313 312 312 313 309 308 306 303 301 300 299 299 297 295 295 295 295 294 294 293 294 296 295 294 294 294 296 300 298 295 297 301 310 317 319 322 324 327 326 325 323 324 326 326 324
313 311 313 314 314 312 312 312 307 306 303 301 299 299 298 297 296 295 295 294 293 293 293 293 293 293 293 294 294 293 294 297 300 296 295 296 300 307 317 319 320 321 325 326 324 323 325 324 324
312 312 312 313 313 311 311 309 308 304 302 300 299 298 297 296 295 295 294 293 292 292 292 292 293 293 293 293 293 293 294 293 297 298 294 295 301 306 307 313 318 321 324 324 323 323 324 323 324
313 312 312 312 312 310 309 309 304 302 302 300 299 298 297 295 294 294 294 292 291 292 292 292 292 292 292 293 293 292 293 294 294 296 296 296 298 297 296 303 308 318 321 323 323 322 323 324 323
311 311 311 311 309 308 308 307 303 300 300 299 298 298 296 294 294 294 293 292 291 291 292 292 291 292 291 292 293 291 292 294 294 294 295 297 299 298 297 300 302 308 319 322 323 323 321 321 321
311 307 307 308 308 307 306 306 306 299 298 298 299 296 295 294 294 293 292 291 291 292 291 291 291 290 290 292 291 292 292 291 293 294 294 294 297 299 297 297 301 303 307 319 321 322 322 320 320
310 305 305 306 306 306 306 304 306 301 299 298 297 295 294 294 293 292 292 292 291 291 290 290 289 289 289 288 287 288 290 291 290 291 294 293 295 297 297 295 299 301 304 309 321 322 320 320 320
306 306 306 306 305 305 305 305 307 302 302 297 296 294 294 293 292 292 291 291 291 290 290 289 288 287 286 285 283 283 286 289 290 290 292 292 294 296 297 296 294 301 304 306 317 321 320 320 320
307 306 306 309 307 308 303 302 303 298 297 296 295 294 293 292 292 292 291 291 290 289 290 288 286 286 284 282 280 280 280 282 286 289 291 293 294 295 297 296 294 298 302 303 314 320 320 320 320
306 305 305 306 308 306 301 301 303 298 297 296 295 294 293 292 292 292 291 290 289 290 288 286 285 285 283 282 279 279 279 279 281 284 288 290 292 294 296 296 295 294 300 301 303 316 316 318 320
305 303 302 303 294 298 299 302 299 297 296 296 294 293 292 292 292 291 290 289 290 288 287 285 284 283 281 280 279 278 278 278 279 281 283 287 291 294 295 295 295 293 298 301 304 306 318 317 318
299 301 301 300 296 300 303 302 302 297 296 294 293 293 292 292 291 290 290 289 289 287 286 284 283 281 280 279 278 277 277 277 278 278 280 284 288 291 295 295 295 294 295 299 301 305 308 316 317
297 297 297 298 301 300 299 300 297 296 296 294 293 293 292 291 291 290 289 289 287 286 284 282 282 281 280 278 277 276 275 276 277 277 278 281 284 288 293 296 295 295 294 297 302 304 312 314 316
296 298 297 296 298 296 297 298 299 298 294 294 293 292 291 291 290 289 289 288 286 285 283 281 280 280 280 278 276 275 274 275 275 277 278 279 282 284 290 293 296 295 294 293 300 302 302 315 315

GFSSGP_850_thetae_009.txt.gz
Theta_e
319 320 324 325 323 317 319 320 317 317 318 318 319 319 318 318 317 317 318 316 314 320 323 318 316 322 327 330 332 334 334 336 336 335 336 334 331 331 329 328 327 323 325 321 318 317 316 319 324
319 322 325 326 320 318 316 316 316 316 318 319 319 318 317 314 317 315 315 314 314 322 325 323 321 321 323 333 333 334 334 334 334 335 336 335 334 331 329 328 326 324 321 319 317 315 315 318 334
319 322 324 320 315 316 317 315 315 317 318 318 317 316 313 312 314 314 316 314 315 317 323 326 320 319 323 331 334 334 333 331 330 331 332 333 335 334 330 329 327 325 321 317 315 313 314 316 332
320 323 322 317 318 317 315 315 317 317 318 318 317 311 312 312 312 313 315 315 315 315 317 322 320 315 314 316 323 330 332 328 326 327 330 332 332 332 331 330 329 325 320 317 317 322 311 313 327
320 320 317 318 317 316 314 317 317 316 316 317 316 311 311 310 311 312 313 313 314 316 317 315 314 312 313 314 317 322 331 329 328 327 327 329 330 331 331 331 330 327 320 325 327 332 329 311 321
319 319 317 317 317 315 314 317 317 314 314 315 314 312 308 308 310 309 310 310 310 310 312 314 316 316 315 313 316 321 323 326 328 328 327 327 328 329 329 329 330 329 328 326 329 327 328 324 314
319 315 318 318 317 316 316 317 316 314 313 313 314 310 307 307 307 308 307 307 306 307 308 308 309 310 312 316 318 317 322 326 327 326 326 326 327 327 327 328 329 329 328 329 328 326 326 327 318
319 314 319 317 317 317 316 316 316 314 312 314 314 309 306 305 305 306 306 306 305 304 304 305 305 306 307 308 310 314 320 325 325 326 326 325 324 324 323 326 330 330 328 326 326 326 325 324 326
319 317 318 316 317 316 316 315 314 313 311 310 308 307 304 305 305 306 305 304 304 304 304 304 304 303 303 304 304 305 309 317 323 325 327 325 325 324 327 325 328 331 328 326 326 326 325 325 326
317 316 317 315 314 314 314 314 314 313 309 306 305 304 304 304 303 302 302 301 301 302 302 302 303 303 304 304 303 303 302 302 306 317 324 326 325 327 327 328 327 330 329 328 327 326 325 325 327
316 316 316 315 315 315 314 313 314 310 308 308 304 303 303 302 301 300 299 299 297 298 299 298 298 299 299 299 299 301 302 301 302 302 310 320 325 326 327 327 328 327 330 329 328 327 325 325 325
315 316 316 315 314 314 313 313 310 310 307 306 305 303 302 301 300 299 298 297 296 297 297 296 296 296 295 295 296 297 297 298 299 302 301 305 317 322 324 326 327 328 329 329 327 327 326 325 325
315 316 315 315 314 313 313 312 309 305 306 306 304 303 302 301 300 299 298 296 296 295 295 294 294 294 294 295 295 295 295 295 296 296 299 298 303 313 320 322 325 327 329 329 328 327 326 324 325
316 315 314 314 313 313 312 311 310 305 305 304 303 302 301 300 300 299 296 295 295 294 294 293 293 293 294 294 295 295 295 295 294 295 296 296 297 304 316 319 321 324 327 328 327 327 326 324 325
314 313 312 313 312 312 312 311 309 305 305 304 302 301 301 300 299 296 295 295 294 293 293 293 293 294 294 294 294 294 295 295 295 295 295 295 295 296 302 316 319 321 324 326 327 327 326 324 325
313 312 313 313 312 312 310 309 305 305 304 302 301 300 300 298 296 295 295 295 294 292 292 293 293 293 293 293 293 293 293 294 294 294 294 294 294 294 295 299 314 319 321 324 326 327 326 325 325
313 313 312 313 312 311 310 310 306 305 303 301 299 299 298 296 295 295 295 294 293 292 292 292 293 293 293 292 292 292 292 293 293 292 292 294 296 294 294 296 301 315 319 321 324 326 327 324 326
310 309 310 310 311 309 309 309 305 305 302 300 299 298 297 295 295 295 294 294 292 291 292 292 292 292 292 291 291 291 292 293 293 292 292 293 294 295 295 295 296 300 310 316 322 325 324 324 325
310 310 309 309 310 309 308 309 304 303 300 298 298 297 296 295 294 294 294 293 291 291 291 291 292 292 290 290 289 291 292 291 291 291 292 293 294 295 293 296 295 296 297 307 312 322 322 324 325
311 311 309 309 309 309 308 307 307 301 299 298 297 297 295 294 294 294 293 292 291 290 291 291 292 291 291 289 289 288 287 288 287 288 291 292 292 293 294 294 296 296 296 299 303 309 322 324 324
310 309 308 309 307 306 305 305 303 300 299 298 298 297 294 294 294 293 292 291 290 290 290 291 291 291 290 289 288 288 287 287 286 287 289 290 291 292 293 294 295 296 296 298 300 304 308 321 323
308 307 307 306 306 305 305 305 301 298 298 297 297 295 294 294 293 293 292 291 290 289 290 290 290 289 289 288 287 286 284 283 282 282 284 287 290 291 292 294 295 295 296 297 300 303 303 309 322
308 305 305 305 304 304 304 303 303 299 298 297 294 294 294 293 293 292 291 291 290 289 289 289 289 288 287 286 286 285 283 282 281 281 281 283 287 290 291 292 293 295 296 296 297 300 302 305 320
305 306 305 304 302 303 304 304 302 298 299 297 293 293 293 293 292 292 291 290 289 289 289 289 288 287 286 285 285 283 282 281 279 279 279 280 282 287 290 293 295 296 296 295 297 299 301 303 313
306 304 306 305 304 307 301 301 304 300 298 297 292 293 293 292 292 291 290 289 289 289 288 288 287 287 286 284 282 282 281 280 278 278 278 279 280 283 289 291 294 296 296 296 294 297 300 303 302
305 303 305 306 306 307 301 303 302 296 295 294 293 293 292 292 292 291 290 289 288 288 288 288 287 286 285 283 281 282 281 279 278 278 278 277 278 280 285 289 290 295 296 296 294 296 300 301 302
304 303 302 303 289 295 299 299 297 295 294 293 292 292 292 292 291 291 290 289 288 288 287 287 286 286 285 282 281 282 280 279 277 276 277 277 278 279 281 284 287 292 296 296 294 294 298 301 303
300 300 301 301 306 298 300 301 303 295 294 292 291 292 292 292 291 291 289 288 288 288 287 286 285 285 283 281 280 281 280 278 276 275 275 276 277 278 279 282 287 290 294 295 295 294 297 300 301
295 298 298 299 302 304 300 304 297 296 295 292 291 292 292 291 291 290 289 288 288 288 286 286 285 283 282 280 279 280 279 277 275 274 274 275 275 277 279 281 283 289 293 294 295 295 295 299 301
297 298 299 302 303 298 300 302 297 296 295 292 292 292 291 291 291 289 288 288 288 286 286 285 284 283 282 279 278 279 278 276 274 274 273 273 273 275 277 279 281 286 291 293 295 295 295 297 302

GFSSGP_850_thetae_012.txt.gz
Theta_e
319 321 324 325 322 313 316 318 315 317 317 318 318 315 312 312 315 319 318 319 321 325 328 327 323 327 330 332 332 332 333 333 334 334 333 334 334 332 329 327 327 326 325 322 323 320 317 317 319
319 323 325 325 318 315 315 314 316 316 317 318 317 315 312 311 314 314 315 317 319 318 321 324 328 323 326 330 331 333 332 331 331 330 331 333 333 331 334 328 327 327 325 323 320 319 317 316 316
319 322 324 316 311 315 315 314 315 316 317 317 314 312 311 310 312 311 312 316 316 316 318 319 320 317 315 318 323 330 331 331 329 327 328 330 331 331 332 332 330 328 327 324 320 318 317 314 314
320 322 320 313 316 315 314 314 315 315 317 316 314 309 308 308 308 307 309 312 315 316 315 314 314 314 315 315 316 321 330 332 331 330 328 325 329 329 330 330 330 330 329 326 322 318 316 313 313
319 319 315 315 315 315 313 315 316 313 315 313 314 309 308 306 306 307 307 308 309 310 311 313 314 315 315 315 317 322 324 324 330 331 330 329 327 327 328 329 329 328 329 328 323 323 325 329 316
319 316 315 314 315 314 314 315 315 312 313 313 310 308 306 305 306 306 306 305 305 306 307 307 307 308 309 311 313 315 318 321 324 325 328 329 329 328 327 327 328 327 327 328 328 325 328 329 330
317 312 317 314 314 315 315 316 313 311 312 312 312 306 304 304 304 304 305 305 305 305 305 306 306 306 306 305 305 306 308 315 320 323 325 326 326 326 326 326 325 325 326 328 328 328 328 327 325
318 312 318 315 314 316 315 315 313 313 311 312 311 305 304 302 303 304 305 305 305 305 305 305 306 306 306 306 306 306 305 305 306 309 320 324 325 325 325 324 324 325 323 326 328 328 327 326 326
319 315 317 315 315 315 314 313 311 312 311 307 307 305 302 302 303 304 305 305 305 304 303 302 302 301 301 301 301 302 303 305 306 306 305 307 319 325 325 324 324 322 324 324 329 328 326 326 326
316 314 316 314 313 313 314 313 312 308 306 303 302 302 302 303 304 305 305 304 302 301 300 299 298 298 298 298 299 299 299 299 300 301 301 303 305 312 322 324 325 325 325 324 326 330 328 326 326
314 314 314 314 314 314 313 312 312 307 307 305 303 301 303 304 304 303 301 299 297 297 296 296 296 296 296 296 296 297 297 297 297 298 298 298 299 302 305 315 322 324 326 327 325 328 329 327 326
314 315 315 314 314 313 312 312 309 309 308 309 305 304 303 302 302 301 299 297 296 295 294 294 294 294 294 295 296 296 296 296 296 296 296 296 297 297 298 300 311 320 322 324 327 326 327 328 328
315 315 314 314 313 312 312 311 309 305 305 304 303 302 302 301 301 299 296 296 295 293 293 293 293 294 294 294 295 295 295 295 295 295 296 296 296 296 296 297 297 308 319 322 323 325 328 328 327
315 314 314 314 313 312 310 309 310 305 303 303 302 302 301 301 301 299 296 295 294 293 293 293 293 293 293 294 295 295 295 295 295 295 295 295 295 295 295 295 295 296 304 319 321 323 325 328 327
313 312 311 312 312 311 311 308 308 307 304 302 302 301 301 300 298 297 295 295 294 292 292 292 293 293 293 294 294 295 295 295 294 294 294 294 294 294 294 294 295 295 295 305 319 322 323 324 327
312 311 312 312 311 311 309 310 307 306 304 302 301 300 299 297 296 295 295 294 293 292 292 292 292 293 293 294 294 294 294 295 295 295 294 293 293 293 293 294 294 294 294 295 306 318 321 324 325
310 312 311 310 310 310 308 308 305 304 303 302 300 300 297 295 295 295 295 294 293 292 292 292 292 292 293 293 294 294 294 293 293 292 293 293 293 292 293 293 293 295 293 294 295 305 316 321 322
312 309 307 307 310 309 309 308 304 303 302 300 299 299 296 295 295 295 295 294 292 291 291 291 291 292 292 293 293 293 293 293 292 292 291 290 290 290 292 293 293 295 293 294 294 295 304 313 318
309 308 307 307 309 310 308 309 305 304 301 298 298 297 296 295 294 294 294 293 292 292 291 291 291 291 291 291 291 292 291 292 292 291 291 290 289 288 290 291 292 293 295 294 294 294 294 305 310
308 309 308 308 307 307 307 306 306 303 301 299 297 296 295 294 294 294 293 293 292 291 290 290 290 290 290 290 290 290 290 290 291 290 290 290 290 289 287 290 291 291 292 294 295 294 295 297 303
308 309 308 308 306 304 304 305 307 302 301 298 296 297 295 294 294 293 293 292 291 290 290 290 290 289 290 290 290 290 290 290 290 290 289 289 289 288 287 287 289 290 293 295 295 295 295 298 299
308 306 306 306 305 306 303 306 305 299 300 296 296 296 294 294 294 293 293 291 291 290 289 289 289 289 289 289 290 289 288 288 287 288 289 288 288 287 286 284 286 289 291 292 292 294 295 296 298
307 305 305 305 304 304 303 303 304 299 300 297 295 295 294 294 294 293 292 291 290 289 289 288 288 288 289 289 289 289 286 284 284 287 286 287 286 284 284 283 283 288 291 294 293 293 295 295 298
305 305 304 302 301 303 303 303 302 297 300 299 296 293 294 293 293 292 291 290 289 289 289 288 287 288 288 288 288 287 285 283 283 284 284 286 284 281 282 283 282 284 288 292 294 296 294 296 296
306 303 307 307 303 309 300 301 308 301 298 298 296 293 293 293 292 292 291 290 289 289 288 288 287 288 288 288 287 286 285 284 281 282 282 284 283 279 279 281 281 282 286 289 292 295 295 296 295
305 304 308 309 308 313 301 304 304 296 295 299 297 293 293 292 292 292 291 290 289 288 288 287 288 288 288 287 287 286 285 282 281 282 282 281 278 278 277 277 279 280 283 286 289 294 296 296 295
304 302 302 302 287 295 300 300 300 293 292 291 291 292 292 292 292 292 291 289 288 288 288 288 288 287 287 287 286 285 283 282 282 284 282 278 276 276 275 275 278 279 281 284 287 292 295 295 295
301 300 302 300 307 304 303 302 306 294 292 291 290 290 292 292 292 292 291 289 289 289 288 288 287 287 287 286 285 284 283 281 283 283 280 277 275 274 274 274 275 279 279 282 284 291 293 295 295
296 299 298 300 306 308 308 312 298 297 295 292 291 291 292 292 292 291 290 289 289 288 287 287 287 286 286 285 285 283 281 281 283 281 278 275 274 273 273 273 274 276 277 279 283 287 292 293 295
299 301 300 304 305 303 304 310 296 297 296 294 292 291 292 292 292 291 290 289 288 287 287 286 286 286 286 285 283 282 281 281 283 279 276 274 273 273 272 273 273 274 277 278 281 284 290 292 294

GFSSGP_850_thetae_015.txt.gz
Theta_e
319 320 323 325 317 312 315 317 314 316 316 315 315 314 310 311 314 317 313 317 322 326 327 325 325 324 329 331 332 332 332 332 332 332 331 330 332 333 332 329 327 327 327 325 324 322 323 319 317
319 321 324 324 313 315 313 314 316 314 314 314 313 312 311 309 312 311 314 315 317 319 320 322 320 317 317 324 329 331 333 332 331 330 329 328 329 329 330 330 328 329 328 327 325 322 320 319 318
319 323 324 313 310 314 314 314 314 315 315 315 312 311 309 307 308 308 308 310 313 316 316 316 316 315 313 313 317 324 326 329 331 331 330 329 328 328 329 330 330 328 328 328 327 324 320 318 317
320 322 318 311 315 314 314 314 313 314 315 314 311 307 306 307 307 306 306 307 310 312 312 312 313 315 315 314 314 315 319 324 327 330 329 329 329 329 328 329 329 329 328 328 328 327 322 318 316
319 319 313 312 314 314 312 313 314 313 312 312 312 306 305 305 305 304 305 305 307 307 307 307 307 308 309 310 312 313 314 316 320 322 326 329 329 329 328 328 327 328 328 327 326 327 327 323 327
318 314 313 314 314 313 313 314 313 311 311 311 309 306 305 304 305 305 304 305 305 305 305 306 305 305 305 306 306 306 307 308 311 314 317 320 323 326 327 326 327 328 327 326 326 324 326 327 327
315 311 314 311 312 314 314 314 312 311 311 310 309 304 303 303 305 305 304 304 305 305 305 305 306 305 306 306 306 305 306 306 307 307 307 310 317 321 323 325 325 325 325 325 324 325 326 326 328
317 311 315 312 312 315 314 313 312 311 309 310 310 303 302 303 304 304 304 304 304 304 304 304 303 302 301 301 300 300 300 301 301 304 306 306 306 309 319 322 321 323 323 323 325 325 323 327 327
319 314 315 314 313 314 313 312 311 310 309 308 308 307 306 304 303 303 303 303 303 303 303 300 300 300 300 300 300 300 300 300 300 300 300 300 303 305 305 308 321 324 322 322 322 324 323 326 327
314 313 315 313 311 312 313 312 311 309 305 302 304 304 303 303 303 303 303 303 303 301 300 299 299 299 299 299 299 298 299 299 299 299 299 299 299 299 300 303 303 309 321 324 323 324 325 323 327
313 312 313 314 314 314 312 311 311 308 306 305 304 303 302 303 303 303 303 302 300 299 298 298 298 297 297 297 297 297 297 298 298 297 297 298 298 298 298 298 301 303 303 315 323 324 325 325 324
315 314 314 314 314 313 310 311 309 309 310 311 309 307 303 302 303 302 301 300 298 297 296 296 296 296 295 295 296 296 296 296 297 297 296 296 297 297 297 297 297 298 300 300 310 321 322 323 325
314 313 313 313 313 313 312 311 310 308 310 309 306 303 303 302 302 301 300 298 296 296 296 295 295 295 295 295 295 295 295 296 296 296 296 296 296 296 296 297 297 297 297 297 298 307 320 323 323
313 313 313 313 312 311 311 309 309 306 306 306 304 303 302 302 302 301 298 297 295 294 294 294 294 294 294 294 294 294 295 295 295 295 295 295 295 295 296 296 296 296 296 296 296 296 303 319 322
312 311 310 310 311 310 310 309 307 308 304 304 303 302 301 301 300 299 297 295 295 293 293 293 293 293 293 293 293 294 294 295 295 295 295 294 294 294 294 295 295 295 295 295 295 295 295 300 316
311 310 311 311 309 310 309 310 308 308 304 301 301 300 300 300 299 297 296 295 294 293 293 293 292 292 292 293 293 293 294 294 294 294 294 294 294 294 294 294 294 293 293 294 294 294 295 295 299
307 312 311 310 309 308 307 308 307 306 303 300 300 300 299 297 296 296 295 294 294 293 293 292 292 292 292 293 293 293 293 294 294 293 293 294 294 294 294 294 294 293 293 292 292 294 294 294 294
314 310 308 307 309 308 308 307 306 305 302 302 300 300 299 297 297 296 295 294 294 293 292 292 292 291 292 292 292 293 293 293 293 293 293 292 293 293 293 293 293 293 293 291 291 292 293 294 293
309 308 306 306 307 309 308 308 310 305 301 301 300 299 299 297 296 295 294 294 294 292 292 291 292 292 292 291 292 292 291 292 292 292 291 291 291 292 292 292 291 291 291 290 291 293 294 293 294
308 308 307 306 306 306 306 306 307 303 302 302 300 298 299 296 295 294 294 293 293 292 292 291 291 291 291 290 291 290 290 290 291 290 290 290 290 290 291 291 291 290 289 289 289 290 293 294 296
307 308 307 308 304 303 302 302 305 304 303 304 301 299 298 298 295 294 293 293 292 292 292 292 291 290 290 290 290 290 290 291 290 289 289 290 289 289 290 291 290 289 287 286 286 289 292 293 294
307 306 307 306 305 306 304 309 304 303 302 299 299 298 298 297 295 295 293 293 292 292 291 291 291 290 290 290 290 289 289 289 289 289 289 289 289 289 289 289 289 289 287 284 284 286 291 292 292
308 305 305 305 304 303 303 303 303 300 301 303 297 296 296 298 295 294 293 293 292 291 291 290 291 290 290 289 289 289 288 288 288 288 288 289 289 288 288 288 288 288 287 284 282 284 289 293 293
305 305 304 299 301 304 304 304 303 302 302 301 298 296 296 297 295 294 293 292 291 291 291 290 290 289 288 288 288 288 287 287 287 288 288 288 288 287 288 287 286 286 286 282 281 282 287 291 293
305 305 310 310 304 310 300 301 308 306 303 299 298 296 296 296 294 293 292 292 291 291 290 290 289 288 288 287 287 287 287 286 287 287 286 285 286 287 286 284 285 285 284 279 279 280 284 288 290
304 306 310 309 308 310 301 305 306 300 296 296 296 299 296 294 294 293 292 292 291 290 290 289 288 288 287 287 287 286 286 286 286 285 284 284 285 285 284 285 283 280 280 278 277 279 280 285 289
304 304 303 305 286 296 305 301 301 295 293 292 295 297 294 293 294 293 292 292 291 290 289 288 288 287 287 287 286 286 286 286 285 284 283 284 285 285 284 283 281 277 277 276 275 277 279 282 286
301 300 303 300 302 303 305 304 309 303 298 291 290 291 292 292 293 292 292 291 290 289 289 288 287 287 287 286 286 286 285 284 284 283 283 284 284 284 284 282 279 275 274 273 274 275 278 280 284
298 300 299 300 304 305 303 310 303 305 299 293 291 292 293 292 293 292 292 291 289 289 288 288 288 287 287 286 286 285 285 284 283 282 283 284 284 283 282 279 277 274 273 273 274 274 277 279 283
300 301 302 304 302 299 303 310 299 299 299 293 292 293 293 293 293 292 292 290 289 289 288 288 288 286 286 285 285 285 284 283 282 282 282 283 283 282 278 277 275 272 272 272 273 273 275 278 280

GFSSGP_850_thetae_021.txt.gz
Theta_e
317 320 323 324 319 316 315 316 313 314 314 312 313 313 314 311 316 319 314 315 316 316 317 318 320 320 319 325 328 330 330 331 332 333 332 332 332 332 331 331 331 330 330 328 326 325 325 324 322
318 319 323 320 317 317 316 312 314 313 312 312 313 312 311 311 311 312 313 312 312 314 314 315 315 315 316 315 318 324 326 328 328 327 327 327 327 327 329 331 332 331 331 329 328 327 323 324 325
318 322 322 313 312 317 316 312 312 311 312 311 310 310 310 310 310 311 312 311 310 310 311 313 313 313 314 314 313 314 317 320 322 324 326 327 326 326 326 326 325 327 329 330 330 329 329 327 324
319 319 314 315 315 313 313 311 311 310 310 311 311 308 309 310 310 309 309 308 307 307 307 308 307 307 308 310 311 312 312 312 313 314 316 317 319 322 324 325 326 325 325 324 325 328 329 329 330
319 318 313 313 313 312 310 311 312 310 311 310 311 309 307 309 308 307 305 305 304 305 305 306 306 306 307 307 307 308 308 308 308 309 309 310 310 312 313 315 318 323 326 326 325 324 324 327 327
318 314 315 315 312 312 311 312 312 311 310 310 310 307 307 308 307 305 304 303 303 304 304 305 305 306 306 306 306 306 304 303 303 302 302 302 303 305 307 309 310 312 315 318 322 323 322 321 324
316 313 314 312 312 313 312 311 310 310 309 310 310 306 307 306 305 304 304 303 303 304 304 304 305 305 304 303 302 302 302 302 302 302 302 302 302 302 302 302 303 306 308 311 314 318 321 322 322
316 311 311 310 312 314 311 311 310 312 310 310 310 308 307 308 305 303 303 303 303 303 303 303 303 302 302 301 301 301 301 301 301 301 301 301 301 301 301 301 301 301 301 304 307 310 317 318 318
317 313 314 313 311 313 310 310 310 310 310 309 309 309 309 308 306 304 303 303 303 303 303 303 302 301 300 300 300 300 300 301 301 301 301 301 301 301 301 300 300 299 299 299 299 303 306 311 320
312 312 314 311 309 312 310 311 310 309 308 308 309 309 309 308 307 306 305 304 303 303 302 302 301 300 300 299 300 300 300 300 300 300 300 300 300 300 300 300 300 300 299 299 299 299 299 302 305
311 311 312 313 313 312 311 310 310 308 307 311 313 312 309 307 306 305 304 303 303 302 302 301 300 300 300 300 300 299 299 299 299 299 299 299 299 299 299 299 299 299 299 299 299 299 299 299 299
314 312 313 314 313 312 311 310 308 309 313 313 312 311 310 308 307 306 304 303 303 302 301 300 300 300 300 300 299 299 299 299 299 299 298 299 299 299 298 298 298 298 298 299 299 299 299 298 298
312 312 313 313 313 312 311 310 309 308 312 311 311 311 309 308 307 305 303 302 301 301 302 301 300 299 299 299 298 298 298 298 298 297 297 297 297 297 297 296 296 296 296 297 297 297 298 298 298
311 312 312 312 312 311 310 309 309 311 312 311 310 310 309 308 307 304 303 301 301 301 301 299 298 297 297 297 297 297 297 297 297 296 296 296 296 296 296 296 296 296 296 296 296 296 296 296 297
311 311 308 309 310 310 309 308 307 312 310 310 310 309 308 307 305 306 305 303 302 300 299 298 297 296 296 296 297 297 296 296 296 296 296 295 295 295 294 295 295 295 295 295 295 295 295 295 296
310 308 312 310 308 309 309 312 309 311 309 310 309 308 307 307 306 305 303 302 300 298 298 297 296 295 296 296 296 296 295 295 295 295 294 294 294 294 294 294 294 294 294 294 294 294 294 294 294
308 312 311 310 307 308 307 311 309 310 307 307 308 307 306 306 304 304 302 301 300 298 298 297 296 295 295 295 295 295 295 295 295 294 294 293 293 293 292 292 292 292 292 292 292 292 292 293 293
309 311 309 309 309 307 307 307 309 308 308 307 307 307 305 305 307 305 302 300 298 298 297 296 295 295 294 294 294 294 295 295 295 294 293 293 292 292 291 291 291 291 291 291 291 291 291 292 292
311 310 310 307 305 307 306 308 309 310 306 304 306 304 305 307 306 304 302 300 297 296 296 296 295 294 294 294 294 294 294 295 294 294 292 291 291 291 292 291 291 291 291 291 290 290 290 290 291
308 309 307 306 305 304 305 306 307 307 309 308 306 304 305 305 304 304 302 299 298 297 296 295 294 293 293 293 293 293 294 295 294 292 291 291 291 291 291 291 290 289 289 289 289 289 290 290 290
307 307 307 308 304 302 302 303 303 304 305 307 307 306 307 307 306 304 302 300 298 296 295 295 294 292 292 292 292 292 293 293 293 292 292 291 291 290 290 289 289 288 288 288 288 288 289 289 289
310 305 306 306 306 308 303 310 306 305 306 305 307 307 309 308 307 304 303 301 298 296 295 294 292 291 291 291 292 292 292 292 291 290 290 290 289 288 288 288 288 288 288 288 287 288 288 287 287
309 304 304 304 304 302 303 304 307 301 306 308 307 309 309 308 308 307 305 303 301 296 295 294 292 291 291 291 291 291 291 291 291 290 289 288 288 288 288 288 287 287 287 287 287 287 287 286 285
302 304 302 298 300 305 307 307 305 304 305 306 306 309 309 309 308 306 303 300 299 297 294 293 291 291 291 291 291 290 291 290 290 289 288 287 288 288 287 287 287 286 286 286 286 286 286 285 284
304 307 310 308 306 311 300 302 309 306 303 305 308 309 308 306 306 305 302 300 298 297 294 293 291 291 291 291 291 290 290 289 289 288 287 287 288 287 287 286 286 285 285 285 285 285 285 283 280
303 307 310 307 307 309 299 305 309 303 306 306 306 308 305 306 305 304 303 301 299 297 294 293 291 291 291 291 290 290 289 288 288 287 287 287 287 286 286 285 285 284 284 285 285 284 284 281 278
304 306 305 306 288 301 308 305 304 302 301 300 301 301 303 304 306 306 304 301 298 297 294 293 291 291 291 290 290 290 288 287 287 287 287 287 286 286 285 284 284 284 284 284 284 283 282 278 276
302 301 306 304 307 304 308 308 309 307 306 304 301 301 304 306 306 307 305 301 298 296 294 292 291 291 290 290 290 289 288 287 287 287 287 286 285 285 284 284 284 284 284 284 282 282 279 276 275
300 301 301 303 304 307 308 310 304 306 304 305 303 305 305 307 308 308 306 303 299 296 293 292 291 290 290 289 289 288 287 286 286 286 286 285 285 285 284 284 284 284 284 283 282 280 277 275 273
300 303 304 307 306 300 302 310 306 306 303 301 304 305 306 307 307 306 305 303 299 294 292 291 290 290 289 289 288 287 286 286 286 286 286 285 285 284 283 283 283 283 283 283 280 279 276 273 272

GFSSGP_850_thetae_024.txt.gz
Theta_e
317 320 323 324 325 323 322 321 319 319 319 316 315 319 321 318 322 322 315 316 316 315 315 315 316 317 317 320 323 327 329 329 329 331 331 331 331 330 330 330 330 330 329 328 327 326 328 328 325
318 319 322 322 326 324 322 320 320 320 317 314 314 314 317 320 314 314 314 315 314 314 314 314 315 315 315 315 315 320 323 325 327 328 327 326 326 326 326 326 327 329 330 330 328 327 325 326 331
318 322 326 325 323 322 322 320 321 316 314 315 315 313 315 316 311 311 314 315 312 311 311 312 312 312 313 314 313 313 313 316 318 320 320 321 322 323 323 323 324 324 323 322 323 325 327 326 326
320 320 316 322 322 321 321 320 318 315 312 312 313 316 311 312 311 312 315 313 310 309 308 308 307 307 308 309 310 311 312 312 312 312 313 313 314 314 315 316 320 321 323 324 324 323 321 321 323
319 320 322 322 321 319 317 317 316 317 316 315 312 317 312 311 312 311 312 309 307 307 306 306 306 306 307 307 307 307 308 308 308 308 308 308 309 309 309 309 310 312 313 315 318 321 324 323 322
320 319 322 321 320 318 316 315 316 317 315 313 313 313 312 310 310 310 308 307 306 305 305 305 306 306 306 306 305 304 304 303 302 302 302 302 302 302 302 302 302 303 305 308 310 313 316 319 322
322 322 322 321 320 318 317 314 316 317 316 315 312 316 310 308 309 309 307 305 305 305 305 305 305 306 306 305 305 303 302 302 302 302 302 302 302 302 302 301 301 301 301 301 302 304 308 312 315
318 321 320 319 320 320 315 314 312 315 316 312 311 317 315 309 309 307 305 304 304 304 304 305 305 305 304 303 302 301 301 301 301 302 302 302 302 302 301 301 301 301 301 301 301 301 301 303 307
316 321 321 320 318 319 313 315 310 311 311 310 310 311 311 309 309 306 305 304 304 304 304 304 304 303 302 301 301 301 301 301 301 301 301 301 301 301 301 301 300 300 300 300 300 300 300 300 300
319 321 320 318 317 318 314 314 314 312 312 311 310 312 311 310 309 308 306 305 304 304 304 304 303 302 301 300 300 300 300 300 301 301 301 301 301 301 300 300 300 300 299 299 299 299 299 299 300
316 319 317 316 314 314 315 313 313 314 315 315 314 312 311 310 308 307 306 304 306 305 304 303 302 301 300 299 299 299 299 300 300 300 301 301 300 300 300 300 300 299 299 299 298 299 299 298 298
318 314 315 315 314 313 314 312 312 312 317 315 314 313 312 310 310 309 306 305 305 305 303 302 301 300 299 299 299 299 299 299 300 300 300 300 300 300 300 300 299 298 298 298 297 298 298 298 298
317 315 314 314 313 313 311 313 314 312 314 313 313 312 311 310 310 308 306 305 306 304 302 301 300 300 299 298 298 299 299 299 299 299 299 299 300 300 299 298 297 296 296 296 296 297 297 297 298
315 314 315 313 314 312 313 314 310 315 314 312 312 312 311 311 310 307 307 307 305 303 302 301 300 300 299 298 298 298 298 298 298 298 298 299 300 299 298 297 296 296 295 295 295 295 296 296 296
312 315 315 313 313 314 311 315 314 315 313 311 311 311 310 310 308 309 309 307 306 304 302 301 300 299 298 298 298 298 298 297 298 298 299 299 298 297 296 295 295 294 294 294 294 294 294 294 295
315 315 319 315 312 311 312 317 318 315 310 311 310 308 308 310 310 309 306 306 305 303 302 300 300 299 297 297 297 297 297 297 298 299 298 297 296 295 295 294 293 293 293 293 293 293 293 293 293
316 318 317 316 312 312 313 318 317 313 309 311 312 310 308 307 307 308 307 306 304 303 301 300 299 298 297 296 296 296 296 297 298 298 298 297 295 294 294 293 292 291 292 292 292 292 291 291 292
318 317 317 317 314 311 314 315 315 314 309 311 313 312 309 306 309 310 307 305 303 302 300 299 299 297 296 295 295 295 296 296 297 297 297 295 294 293 292 292 292 290 291 290 290 290 290 290 290
314 315 316 318 311 313 315 314 314 314 313 312 312 312 311 307 307 307 307 305 303 300 299 298 298 297 295 295 294 295 295 296 297 297 296 294 293 292 292 291 291 290 290 290 289 289 289 289 289
315 317 318 317 309 310 313 312 312 312 312 312 312 313 312 308 305 304 304 304 303 301 299 298 297 296 295 295 294 294 295 295 296 296 295 294 293 292 291 290 290 289 289 289 289 288 288 288 288
315 317 318 315 311 308 308 312 312 311 309 310 311 311 311 309 307 304 304 305 303 301 300 298 297 296 295 294 294 294 294 295 295 295 294 293 292 291 290 289 289 289 289 289 288 288 288 287 287
317 314 313 312 312 317 309 316 315 314 312 311 312 313 310 310 309 306 306 306 305 303 300 298 297 296 295 294 293 293 294 294 294 294 293 292 291 290 288 288 289 289 289 289 289 288 287 287 287
316 307 309 309 311 309 314 312 314 307 310 312 313 313 311 309 309 310 310 308 306 304 302 299 296 295 294 293 293 292 293 293 293 293 292 291 290 289 288 289 289 289 289 288 288 287 287 287 286
305 308 308 306 309 314 315 314 314 312 312 312 312 312 311 310 310 309 308 306 304 302 301 299 296 295 294 293 292 291 292 291 291 290 289 289 289 289 289 289 289 288 288 288 287 287 286 286 286
308 313 317 320 318 318 309 309 312 311 311 311 314 314 309 309 308 308 308 307 305 304 303 299 296 295 293 292 291 291 291 290 290 288 289 289 288 288 288 288 288 288 287 287 286 286 285 285 285
310 314 320 321 317 317 307 310 313 311 311 311 308 309 308 307 307 307 307 306 306 305 303 300 297 294 293 292 290 290 290 290 289 289 289 288 288 288 287 287 287 287 287 286 285 285 285 285 284
309 312 311 316 305 312 314 315 312 309 309 308 306 306 307 307 308 308 307 306 306 307 306 302 298 295 293 291 290 290 290 290 289 289 288 288 287 287 287 287 287 286 285 285 284 283 283 282 281
306 306 311 313 319 318 316 316 316 312 310 309 308 308 310 308 309 308 308 307 307 307 305 301 299 296 293 291 290 289 289 289 289 288 287 287 287 287 287 286 286 285 284 283 282 282 281 281 280
304 308 306 307 310 316 316 315 311 311 310 310 310 310 310 309 309 308 309 309 308 305 304 302 298 294 292 290 289 289 289 289 288 287 287 287 287 287 286 286 285 284 283 282 282 282 281 280 280
305 309 310 313 313 311 313 314 309 310 310 309 308 308 309 310 310 308 309 308 307 306 304 300 295 292 292 290 289 289 289 288 287 287 287 287 287 286 286 286 284 283 282 281 281 281 280 279 278

GFSSGP_850_thetae_027.txt.gz
Theta_e
317 320 323 327 328 326 325 323 322 322 321 320 321 322 322 322 323 325 315 317 318 316 315 314 315 316 316 316 320 324 328 330 331 331 332 331 331 331 330 329 329 329 328 329 327 326 324 325 322
318 320 325 327 327 328 325 323 321 321 320 319 318 319 320 322 317 316 315 317 316 314 314 314 314 314 314 315 315 316 321 324 325 326 327 327 326 325 325 324 324 324 325 327 328 329 328 326 325
318 320 327 327 326 324 324 322 322 320 318 318 319 317 319 320 315 315 315 316 314 313 313 313 313 312 312 313 314 313 314 314 315 316 317 319 318 318 319 319 320 322 323 324 324 324 323 323 324
321 322 321 322 323 324 322 322 322 319 317 317 318 319 314 314 314 312 315 316 314 312 312 311 309 309 308 309 309 309 310 311 311 311 311 311 311 311 311 312 312 312 313 315 317 321 323 324 324
320 322 324 323 322 322 321 321 320 320 319 318 316 319 317 312 313 314 315 316 312 311 310 309 308 308 307 307 307 307 308 307 307 306 305 305 304 304 304 304 304 305 306 307 309 311 312 313 316
322 321 323 323 322 321 320 319 319 320 319 318 317 318 317 313 313 313 315 314 311 310 309 308 308 307 306 306 306 305 304 303 303 302 302 302 302 302 302 302 302 302 302 302 302 302 303 306 310
323 324 323 323 322 322 321 318 319 320 319 318 316 319 315 311 311 312 311 311 310 308 307 308 307 306 306 306 305 303 302 302 301 301 301 301 301 301 301 302 301 301 301 301 301 301 301 301 302
320 322 323 323 322 322 320 318 318 319 320 316 315 319 319 312 311 311 310 309 307 306 306 306 306 305 306 306 305 303 302 301 301 301 301 301 302 302 302 302 302 302 301 301 301 301 301 301 301
318 322 324 323 322 322 318 318 315 315 317 314 314 315 315 312 312 310 308 307 306 306 305 306 305 305 305 305 304 302 302 301 301 302 302 302 302 302 302 302 302 302 301 301 300 300 300 300 300
321 324 324 321 321 320 319 318 318 315 316 316 315 313 313 310 310 310 309 308 307 307 306 305 304 304 304 302 302 301 301 301 301 301 302 302 302 302 303 303 304 304 302 300 300 299 300 300 300
321 322 321 320 318 317 318 317 317 316 318 318 318 316 312 309 309 309 308 308 308 307 306 306 305 304 303 302 301 300 300 300 300 301 301 301 301 302 303 304 304 303 301 299 299 299 299 299 299
320 320 319 319 317 316 317 317 317 316 318 318 318 318 315 312 309 310 308 307 305 303 305 306 305 304 302 301 300 299 299 299 300 300 300 301 301 302 303 303 302 300 299 298 297 297 297 298 298
319 321 318 317 316 316 315 315 317 317 317 317 315 315 313 312 310 309 308 307 306 303 303 306 305 304 302 300 300 299 299 299 299 300 300 300 300 302 301 300 299 298 297 296 296 296 296 296 296
318 318 318 317 317 316 315 317 315 318 317 317 316 313 312 311 311 309 308 307 306 303 303 304 304 303 301 300 299 298 298 298 298 299 299 299 301 301 301 300 298 298 297 296 295 295 295 295 295
316 317 319 318 317 317 315 317 317 317 315 316 316 314 312 312 310 310 309 308 306 304 302 303 303 301 300 299 298 298 298 298 298 299 299 300 300 300 299 298 297 296 295 294 294 293 293 294 294
317 318 319 320 317 315 315 319 319 318 316 315 315 315 313 312 311 311 309 308 306 304 303 302 302 301 300 299 298 298 298 298 298 298 299 300 300 299 298 297 296 295 294 293 293 293 293 293 293
320 320 320 320 316 316 316 319 319 317 315 315 316 316 315 313 311 310 309 307 305 304 301 302 302 301 300 298 297 297 297 297 297 297 298 299 299 298 298 296 295 294 293 293 293 292 292 292 293
319 320 319 319 319 316 317 316 318 317 317 316 315 315 315 315 313 310 308 306 304 302 301 301 302 301 299 298 297 297 297 297 297 297 298 299 299 297 296 295 294 293 293 293 292 292 292 292 293
319 319 318 318 317 317 318 317 318 318 317 317 316 316 316 314 315 311 307 305 303 301 300 300 301 300 299 298 297 296 297 296 296 296 297 298 297 296 295 294 292 292 292 292 291 291 290 290 290
318 318 318 318 318 314 317 317 318 317 317 316 315 315 315 315 314 312 308 305 302 301 300 299 300 300 299 298 297 296 296 295 295 296 297 297 296 295 294 293 292 292 291 290 290 289 289 289 288
317 317 318 318 318 313 314 315 316 316 315 314 314 314 314 314 315 312 308 304 302 301 302 301 301 301 300 299 297 296 295 295 294 295 296 296 295 294 293 292 292 291 289 289 289 289 288 288 288
317 317 318 318 318 318 314 317 318 317 317 316 314 314 315 315 313 312 307 304 304 304 303 302 301 300 299 298 297 296 296 295 294 294 295 295 295 293 292 292 291 290 289 289 288 287 287 287 287
316 312 314 316 317 317 316 317 316 315 315 314 314 314 315 315 312 310 308 307 306 305 306 304 300 299 299 298 297 296 295 294 293 294 294 294 294 293 292 291 290 289 288 287 287 287 287 287 286
310 312 313 312 314 317 317 317 317 317 314 314 313 313 314 313 310 308 307 306 306 305 305 304 301 298 298 298 297 296 294 293 293 293 294 293 293 293 292 290 289 288 288 288 287 287 287 287 287
311 315 318 322 321 320 318 317 317 316 315 314 314 314 313 311 310 309 307 308 307 306 306 305 303 300 299 298 296 295 293 292 292 292 293 293 293 292 290 289 289 289 288 288 287 287 287 286 286
312 316 320 324 320 320 316 316 316 316 315 314 313 313 312 309 309 309 309 309 309 308 307 306 304 302 299 299 296 294 293 292 292 292 292 292 292 291 289 289 289 288 288 287 287 287 286 285 285
313 313 315 319 319 320 315 316 317 315 314 313 312 310 310 309 308 308 309 309 308 308 309 308 306 302 299 298 296 294 293 292 291 291 291 291 290 289 289 288 288 288 288 287 287 286 285 284 284
310 310 314 315 320 319 317 319 320 318 315 313 312 311 311 311 310 308 308 308 308 308 308 307 304 303 299 297 295 294 293 291 291 290 291 291 290 289 288 288 288 288 287 286 285 285 284 283 282
307 310 309 310 316 320 320 318 315 315 316 314 313 311 311 312 310 309 309 308 308 308 307 305 304 302 298 296 294 293 292 291 290 290 290 290 289 288 288 287 287 287 286 285 284 283 283 282 282
309 313 313 314 315 313 315 316 312 313 313 314 312 310 311 310 310 310 310 309 309 308 306 305 303 301 298 295 293 291 291 290 290 290 290 289 288 288 287 287 286 285 285 284 283 283 282 281 281

GFSSGP_850_thetae_030.txt.gz
Theta_e
315 318 323 327 329 326 326 323 322 321 321 321 321 321 321 322 323 324 319 320 324 316 315 315 315 315 315 316 316 321 326 328 329 329 329 330 330 330 329 328 328 328 328 329 330 330 330 328 326
317 320 324 327 327 329 326 321 321 320 320 319 319 320 320 320 318 317 316 318 317 315 314 314 314 314 314 314 314 314 316 319 321 322 324 325 325 326 325 324 324 323 323 324 324 323 323 323 324
317 320 326 327 326 325 324 322 319 319 319 319 319 319 319 318 316 316 316 317 316 314 314 314 314 313 313 313 313 313 313 313 313 313 314 314 315 315 314 314 314 314 314 315 316 317 320 322 323
322 322 322 320 322 322 322 321 319 318 318 318 319 318 317 317 316 316 316 316 315 314 313 313 312 310 310 309 309 309 309 310 310 310 311 310 311 310 310 310 309 308 308 309 309 310 311 312 312
319 323 324 323 322 321 320 320 320 318 318 318 317 318 317 315 315 315 316 316 315 313 313 311 310 309 308 308 308 308 308 308 307 306 305 304 303 303 303 303 303 303 303 303 303 303 303 303 304
321 321 323 323 323 321 320 320 320 320 319 318 317 317 317 317 315 314 315 316 315 313 312 310 309 308 307 307 307 307 306 305 304 303 302 302 302 303 303 303 303 303 303 303 303 303 303 303 303
322 326 324 323 322 322 321 320 319 319 319 318 318 318 316 316 315 314 314 315 315 313 311 309 309 307 307 306 306 305 303 303 302 302 302 302 302 302 302 302 302 302 302 302 303 302 302 303 303
320 321 322 323 322 322 320 319 319 320 319 319 318 316 316 318 315 313 313 313 313 312 311 310 309 307 306 306 305 304 303 302 301 301 301 302 302 302 302 303 303 304 305 305 305 304 303 303 302
319 320 322 324 323 322 318 318 317 318 317 317 317 317 316 316 315 312 311 311 311 311 310 309 309 308 307 306 305 303 302 301 301 301 301 302 302 303 303 304 305 306 306 306 305 303 302 302 301
321 324 325 321 320 320 319 318 318 316 316 317 316 315 315 314 314 313 313 312 311 311 310 309 308 308 307 306 306 305 303 302 301 301 301 302 302 302 303 304 304 305 305 304 302 301 300 300 300
320 321 321 320 320 318 318 318 318 316 315 317 317 316 315 313 312 312 312 312 312 311 309 309 308 308 306 306 305 304 303 302 301 301 301 301 302 302 303 303 304 304 304 303 302 300 299 299 299
320 320 320 320 318 317 317 318 318 317 317 318 318 318 318 316 315 313 312 312 311 309 309 308 308 308 306 305 304 304 302 301 301 301 301 301 302 302 302 303 303 303 303 302 301 300 299 298 298
319 319 319 319 317 316 316 316 315 317 317 317 317 317 317 317 316 315 313 311 310 309 308 308 307 307 306 305 303 303 302 301 300 300 300 301 301 301 302 303 303 303 302 301 300 299 298 297 297
318 318 317 318 317 316 315 316 316 316 317 317 318 317 316 316 315 314 312 311 310 308 307 308 307 307 306 304 303 303 301 300 300 300 300 300 301 301 302 302 302 302 301 300 299 298 297 297 297
317 315 316 317 317 316 317 314 314 316 317 317 317 317 316 315 314 314 314 312 311 309 307 307 307 306 305 304 303 302 301 300 299 300 300 300 300 301 301 301 301 300 299 299 298 296 296 296 295
316 316 317 319 317 315 315 315 316 318 317 317 316 316 316 316 315 313 312 311 310 308 307 306 306 306 305 303 303 302 301 299 299 299 299 299 300 300 300 300 300 299 299 298 298 296 296 295 294
317 317 317 319 318 314 313 315 318 318 317 316 316 315 316 316 315 314 313 311 310 308 307 306 306 305 304 302 301 300 300 298 298 298 299 298 299 299 299 299 299 298 298 297 297 295 294 294 293
318 317 317 317 316 315 314 313 314 317 316 316 317 317 316 316 316 315 313 312 310 308 307 305 304 304 303 301 301 300 299 298 298 298 298 298 299 299 299 298 298 298 297 297 295 293 293 292 292
317 317 317 317 317 315 314 315 315 316 316 317 317 317 317 317 316 315 314 312 310 308 306 304 304 303 303 302 301 300 300 299 298 297 297 297 298 298 298 298 298 298 297 296 293 292 292 292 291
316 316 316 316 315 314 314 315 315 314 315 316 316 316 316 316 315 315 314 312 310 308 306 304 304 304 304 303 302 300 299 298 297 296 296 297 297 298 297 297 297 296 296 294 293 292 292 291 290
315 315 315 315 315 312 313 312 313 313 314 315 315 315 315 315 314 315 314 312 310 307 306 305 305 304 304 303 300 298 297 296 296 296 296 296 297 297 297 297 296 295 294 293 291 291 290 289 289
314 314 315 315 314 315 313 314 314 314 313 312 314 315 316 315 315 314 314 312 311 309 306 305 304 304 303 303 301 299 299 299 299 299 297 296 296 296 296 296 296 295 293 292 291 290 289 287 288
315 312 313 314 315 315 315 314 313 313 312 312 311 316 316 314 315 314 314 313 311 308 306 305 303 303 303 303 301 300 299 297 298 297 295 295 295 295 295 295 295 294 293 292 291 289 289 287 287
310 312 312 312 311 313 313 314 313 312 312 313 311 315 314 313 313 313 312 311 309 307 306 305 304 304 302 302 301 300 300 297 296 296 295 294 294 295 295 295 294 293 292 291 290 289 288 287 286
311 314 315 316 313 315 312 313 314 313 311 310 310 314 313 313 313 311 310 310 308 308 307 305 305 305 304 303 302 301 300 297 296 296 296 294 294 294 295 294 294 293 291 290 289 288 288 287 286
310 313 315 315 313 315 314 313 313 313 312 313 313 314 313 312 312 311 311 311 309 308 308 307 308 306 305 304 303 301 299 297 296 295 294 294 293 293 294 294 293 292 290 289 289 288 288 286 286
312 311 313 314 307 311 313 312 312 311 310 310 311 312 311 311 311 310 310 310 309 309 310 309 308 307 305 305 302 301 298 297 296 295 294 293 293 293 293 293 292 290 289 289 288 288 287 286 286
308 309 312 312 310 310 312 310 313 314 313 309 309 309 311 311 310 310 310 309 309 309 308 308 307 307 306 304 303 301 298 297 295 294 293 293 292 292 292 292 291 290 289 288 288 287 286 286 285
306 308 308 310 313 312 312 313 309 314 313 311 308 311 312 311 311 311 311 310 309 309 309 309 308 307 305 303 301 300 298 297 295 293 292 292 291 291 292 291 290 288 288 288 287 286 286 285 284
308 310 309 311 312 310 312 315 310 310 312 310 309 312 311 311 311 311 310 310 309 310 309 308 307 306 305 303 300 299 297 296 294 293 292 291 291 291 291 290 289 288 288 287 286 286 285 284 284

GFSSGP_850_thetae_033.txt.gz
Theta_e
315 317 322 326 323 318 321 322 318 319 319 319 321 320 319 320 321 321 323 323 322 319 315 314 314 314 316 316 317 321 320 323 324 326 326 327 327 325 325 325 324 324 324 324 323 323 322 322 323
316 319 324 326 321 322 321 318 318 318 319 319 320 320 319 318 319 319 319 322 323 318 314 314 314 314 314 313 313 314 314 315 317 318 318 319 321 323 323 321 321 320 320 320 320 321 321 321 322
317 320 325 321 319 320 319 317 315 317 319 318 318 319 319 318 318 318 318 318 320 316 314 314 314 314 314 314 314 313 313 313 313 313 313 313 313 313 313 313 312 312 311 311 311 311 311 311 312
318 320 321 315 319 316 319 315 316 316 318 318 318 316 317 318 318 317 317 317 317 314 314 314 314 313 312 312 311 311 311 311 311 311 311 310 310 309 308 307 305 304 304 303 303 303 303 303 303
319 322 319 318 316 316 318 318 318 315 316 317 318 316 316 316 317 316 316 317 316 314 314 313 312 311 310 308 308 308 308 308 307 307 306 304 304 303 303 303 303 303 303 303 303 303 303 303 303
319 319 317 318 318 318 317 319 319 317 317 317 317 316 317 316 316 315 315 316 316 315 313 313 312 311 309 308 308 308 307 306 305 304 303 303 303 303 303 303 303 303 303 303 303 303 303 303 303
319 318 319 319 318 318 318 319 317 317 316 316 317 315 315 316 316 314 314 315 315 315 313 312 311 310 309 308 308 308 307 305 304 303 302 302 303 303 303 303 303 304 305 305 305 304 303 303 302
320 315 319 317 318 319 317 318 318 318 316 318 318 314 315 318 316 313 314 315 315 315 314 312 311 310 309 307 308 307 306 305 303 302 302 302 302 302 302 303 305 306 306 307 307 307 305 303 302
319 314 315 318 320 319 317 316 318 318 317 317 317 317 317 318 316 314 313 313 313 314 313 311 310 310 309 307 307 306 306 304 302 302 302 302 302 303 304 304 305 306 306 306 306 306 306 305 303
319 315 317 318 317 318 317 316 317 316 315 316 317 317 317 316 316 316 314 314 314 313 313 312 310 309 309 307 306 306 305 303 302 302 302 302 303 303 303 304 305 305 305 305 305 305 305 303 302
318 316 317 319 319 317 317 316 317 316 313 316 317 317 316 316 315 315 314 314 315 314 312 312 310 310 309 308 306 306 305 303 302 302 302 302 302 303 303 303 304 304 304 304 305 305 304 303 302
318 318 319 319 319 318 316 316 316 316 317 318 318 317 317 316 316 316 315 314 314 313 312 311 310 309 309 308 306 305 305 304 303 302 302 302 302 302 302 302 303 304 304 304 304 304 303 301 299
317 317 319 319 318 317 317 315 314 316 317 317 317 317 317 317 317 317 316 315 313 312 312 311 310 309 308 308 307 306 305 305 303 302 302 302 302 302 302 302 303 303 303 303 302 302 302 302 300
317 317 317 317 317 316 315 314 315 316 317 317 317 317 317 316 317 317 316 315 314 312 312 311 310 309 308 308 307 306 304 304 303 302 301 301 301 301 301 302 303 302 302 302 302 302 302 301 300
317 315 312 314 316 314 315 313 312 317 316 317 317 317 317 317 317 317 316 316 315 313 312 311 310 309 308 307 306 305 303 303 302 301 301 301 301 301 302 302 302 302 302 301 301 302 302 301 299
314 313 314 314 313 315 315 314 313 317 316 315 316 316 317 317 317 316 316 315 314 313 311 310 310 308 308 306 305 304 303 302 302 301 301 301 301 301 301 301 301 301 301 300 300 301 301 299 298
311 311 312 314 314 312 312 313 312 317 316 316 316 317 317 316 316 316 316 315 315 313 312 310 309 309 307 306 305 303 302 302 302 301 301 301 300 300 300 301 301 300 300 299 299 300 300 299 298
311 312 312 313 314 312 311 312 313 315 314 315 316 316 316 316 317 317 316 315 314 313 312 311 309 308 307 305 304 302 301 301 300 301 300 300 299 299 300 300 300 299 299 299 299 299 298 297 297
312 312 312 312 313 313 313 313 313 314 312 313 315 316 316 317 317 317 317 315 314 313 311 310 309 308 306 306 304 303 303 301 300 300 300 299 299 298 299 299 299 298 298 298 298 298 298 297 295
312 313 314 313 313 311 312 312 312 312 313 313 314 315 316 317 317 317 316 316 314 314 312 310 309 308 307 307 306 304 304 301 300 300 299 299 298 298 298 298 298 298 298 298 298 297 297 295 293
313 313 313 312 312 310 310 311 311 311 313 314 314 316 316 316 315 315 315 315 314 313 312 311 310 308 307 306 304 303 300 299 298 298 297 297 297 297 297 297 297 297 297 297 296 296 295 293 292
314 311 312 312 313 314 310 314 311 311 311 311 313 314 316 317 316 315 314 314 314 313 312 311 309 308 307 306 304 304 304 303 303 300 299 299 296 296 296 297 297 297 297 297 296 295 293 292 291
313 311 311 312 311 312 313 312 313 310 310 310 311 315 317 316 315 314 314 314 314 313 312 311 309 307 307 307 305 304 303 302 301 300 299 298 296 295 296 296 296 296 296 296 295 294 292 291 290
310 312 311 310 308 312 311 313 314 309 312 310 311 313 316 316 314 314 314 314 313 312 310 309 309 307 307 306 305 305 304 302 300 299 298 297 296 295 295 295 295 295 295 295 294 292 291 290 290
311 312 312 312 310 314 310 311 314 311 309 310 311 313 316 315 313 313 313 313 313 312 310 309 307 307 306 305 305 305 304 303 301 299 298 297 296 295 295 295 295 295 294 294 293 292 290 290 289
309 312 314 313 312 313 308 310 312 311 312 313 314 316 315 312 313 313 313 312 312 311 310 308 307 307 307 306 306 305 304 302 301 300 299 297 296 296 295 294 294 294 294 293 292 291 290 289 288
310 311 311 313 305 308 313 310 309 310 308 308 309 311 310 312 313 312 312 311 311 310 310 309 309 308 308 308 306 305 305 304 303 301 299 297 295 294 294 293 293 293 293 293 292 291 290 289 288
308 307 312 312 314 312 312 310 312 312 311 310 307 306 310 311 311 311 311 310 310 310 310 310 309 309 308 307 306 305 304 304 303 301 299 298 294 293 292 292 292 292 292 292 291 290 289 288 288
305 308 308 309 312 314 314 313 308 309 310 310 308 309 309 310 311 311 311 311 310 309 310 310 309 308 307 307 307 306 304 303 301 301 299 297 294 292 292 292 292 292 292 291 290 289 288 288 287
307 310 311 312 313 308 311 313 310 310 309 310 310 312 312 312 311 311 311 311 310 310 309 310 309 308 308 308 306 305 303 302 300 299 299 296 293 292 291 291 291 291 291 290 289 288 288 287 286

GFSSGP_850_thetae_036.txt.gz
Theta_e
315 317 321 325 320 317 319 322 316 319 319 319 319 319 318 320 320 318 323 323 322 320 316 316 317 319 325 327 327 327 325 323 323 323 323 324 325 325 323 323 323 323 323 322 321 321 322 322 322
316 318 322 326 320 319 319 318 317 316 318 319 319 319 318 319 320 321 321 321 321 317 315 314 314 314 315 316 315 316 316 319 322 321 319 319 319 319 320 321 320 319 317 316 315 314 314 314 314
317 320 325 318 316 319 318 316 315 317 318 318 318 319 319 318 319 319 320 320 320 320 314 314 314 314 313 313 313 313 313 315 316 315 314 314 314 314 313 313 312 312 311 311 310 310 309 308 309
318 319 319 317 320 318 317 315 315 315 317 317 317 316 317 318 318 319 318 318 318 318 314 314 313 313 313 313 313 313 313 313 313 312 312 311 311 311 310 309 307 306 304 303 303 304 304 304 304
320 322 317 317 315 313 314 316 316 314 316 317 318 316 316 317 318 316 316 317 317 316 314 313 313 314 313 313 312 311 310 310 309 309 308 307 305 304 303 303 303 303 303 303 303 303 303 303 303
319 318 316 317 316 316 315 318 316 315 316 316 316 315 316 317 317 317 315 316 317 316 314 313 313 313 312 310 309 308 308 308 308 307 306 304 304 303 302 303 303 303 303 304 304 304 304 304 303
318 315 316 315 317 317 316 318 315 315 315 316 317 314 316 317 317 316 315 315 316 315 314 313 313 311 310 309 308 308 308 307 306 305 305 304 303 303 303 303 303 304 305 306 307 307 306 305 305
319 314 317 316 317 318 317 317 317 317 315 318 317 313 316 318 317 315 314 314 315 315 314 313 312 311 310 308 308 308 307 306 306 305 304 303 303 303 304 304 305 305 306 306 306 306 306 304 303
318 311 313 315 318 317 317 316 317 317 317 317 317 317 317 317 316 315 314 314 315 315 315 314 312 311 309 308 307 307 307 306 305 303 302 303 303 303 304 304 305 305 305 306 306 306 306 305 304
317 310 312 313 317 316 316 315 317 316 315 316 317 317 317 317 317 316 316 315 315 315 315 314 313 310 309 309 308 307 307 306 305 303 303 303 303 303 303 304 304 305 305 305 305 305 305 305 304
317 314 314 318 318 317 316 315 317 315 312 316 317 318 317 316 316 316 316 316 316 315 314 314 313 311 309 309 308 307 307 306 304 303 303 303 303 303 303 303 304 304 304 304 304 304 304 305 305
316 317 317 318 319 317 315 316 315 315 317 318 318 318 317 317 316 316 316 316 315 314 314 313 312 311 310 308 308 306 306 306 304 304 303 303 303 303 303 303 303 303 303 303 304 304 304 304 305
315 316 318 319 318 318 316 315 313 315 317 316 317 317 317 317 317 316 316 315 315 314 314 313 312 311 310 308 307 306 305 305 304 303 303 303 302 302 303 303 303 303 303 303 303 303 304 304 304
316 316 316 317 317 316 315 314 315 317 317 316 316 316 316 316 317 316 316 316 316 315 314 313 312 311 310 309 307 307 306 304 304 303 302 302 302 302 302 302 303 302 303 303 303 303 303 304 304
316 314 312 315 315 313 314 313 311 317 316 316 316 316 316 316 316 317 317 317 317 316 316 314 312 311 309 308 307 306 306 304 304 304 303 302 302 302 302 302 302 302 303 302 302 303 302 303 303
313 312 313 311 311 313 314 314 312 316 315 316 316 316 316 316 316 316 316 316 316 316 315 315 312 312 310 309 307 306 305 304 304 303 302 301 301 300 301 301 302 302 302 301 301 301 301 301 302
309 309 309 311 312 312 311 313 312 316 315 315 317 317 316 316 316 316 316 316 316 316 315 314 313 312 311 309 307 306 305 305 304 303 302 300 300 300 300 300 301 301 301 301 301 301 300 301 301
309 309 310 311 312 311 311 311 312 315 314 314 315 316 316 317 317 318 317 316 316 316 316 315 313 312 310 308 306 305 304 304 303 302 301 300 299 299 299 299 300 300 300 300 300 300 299 299 300
310 309 310 310 311 312 311 312 313 314 312 311 314 315 316 316 317 317 317 317 316 315 315 315 313 312 310 308 306 305 305 305 303 302 300 300 299 298 298 299 299 300 300 300 299 299 298 298 298
310 311 311 311 311 310 311 312 312 311 313 314 312 314 315 315 316 317 316 316 315 316 316 315 314 313 311 309 308 306 307 306 304 303 301 300 299 298 298 298 298 298 299 299 299 298 297 297 297
310 310 311 311 311 309 309 312 310 309 311 313 314 314 313 314 315 316 317 316 315 315 315 315 314 313 311 309 307 306 304 303 302 302 301 300 298 297 297 297 297 298 298 298 298 297 297 296 295
312 310 311 312 311 312 310 313 312 310 310 310 312 313 313 314 316 316 316 315 315 315 315 314 314 313 311 309 308 307 307 306 306 305 303 300 298 297 297 296 296 297 297 297 297 297 296 296 295
313 310 310 310 309 310 310 310 313 309 310 311 311 313 315 316 316 316 316 315 315 314 314 314 313 312 311 309 308 307 306 305 306 305 303 300 299 298 297 296 296 296 296 296 296 296 296 296 295
309 311 310 306 307 311 311 311 313 309 310 310 310 313 315 316 316 316 313 315 315 314 314 313 312 311 310 309 308 307 306 306 305 304 303 302 300 298 297 296 295 295 295 295 295 295 295 295 294
310 310 311 310 310 313 309 309 313 310 310 309 310 313 316 316 316 315 314 314 313 314 313 313 311 311 310 309 308 306 306 306 305 305 304 303 301 300 298 296 295 294 294 294 294 294 294 294 293
308 311 312 310 312 313 306 310 313 309 310 312 312 313 315 316 315 313 314 314 313 313 313 312 310 310 310 309 308 307 306 306 306 305 304 303 301 300 298 297 296 294 293 293 294 294 294 293 292
309 310 310 310 300 306 310 310 311 309 307 307 308 312 311 313 313 313 313 313 313 313 312 312 311 310 309 309 307 307 306 306 306 305 304 303 302 299 297 296 295 294 293 293 293 293 293 292 291
308 308 311 309 311 311 310 310 312 311 310 309 309 306 311 311 311 311 312 312 312 312 311 311 311 310 310 309 308 307 307 307 306 305 305 303 302 299 296 295 294 293 292 292 292 292 291 290 290
306 308 307 308 312 315 316 314 314 313 307 307 306 309 312 311 311 311 311 311 310 310 310 310 310 309 309 309 309 308 308 307 304 304 303 303 301 299 297 295 293 293 292 291 291 291 291 290 289
306 308 309 312 313 310 313 314 312 311 308 306 306 309 310 311 311 311 311 310 310 310 310 310 310 310 310 309 309 309 308 307 305 303 303 302 301 299 296 295 293 292 292 291 291 290 290 289 288